| time (UTC) | temp F | wind direction | speed knots | gust knots | rain 1hr in | rain 24hr in | rain mn in | humidity % | barometer mb |
| 20260509160622 | 75 | 211 | 5.2 | 7.8 | 0.00 | 0.00 | 0.00 | 49 | 1012.5 |
| 20260509160118 | 74 | 157 | 1.7 | 6.1 | 0.00 | 0.00 | 0.00 | 51 | 1012.6 |
| 20260509155614 | 75 | 133 | 1.7 | 3.5 | 0.00 | 0.00 | 0.00 | 50 | 1012.5 |
| 20260509155111 | 74 | 206 | 1.7 | 5.2 | 0.00 | 0.00 | 0.00 | 48 | 1012.9 |
| 20260509154606 | 73 | 154 | 0.9 | 3.5 | 0.00 | 0.00 | 0.00 | 50 | 1013.1 |
| 20260509154104 | 73 | 194 | 4.3 | 7.0 | 0.00 | 0.00 | 0.00 | 50 | 1013.0 |
| 20260509153601 | 73 | 188 | 1.7 | 6.1 | 0.00 | 0.00 | 0.00 | 51 | 1013.1 |
| 20260509153058 | 73 | 142 | 0.9 | 5.2 | 0.00 | 0.00 | 0.00 | 53 | 1013.1 |
| 20260509152554 | 73 | 159 | 1.7 | 5.2 | 0.00 | 0.00 | 0.00 | 54 | 1013.0 |
| 20260509152051 | 72 | 133 | 2.6 | 3.5 | 0.00 | 0.00 | 0.00 | 55 | 1013.2 |
| 20260509151547 | 71 | 156 | 3.5 | 6.1 | 0.00 | 0.00 | 0.00 | 56 | 1013.4 |
| 20260509151045 | 72 | 179 | 1.7 | 6.1 | 0.00 | 0.00 | 0.00 | 56 | 1013.3 |
| 20260509150542 | 71 | 187 | 1.7 | 6.1 | 0.00 | 0.00 | 0.00 | 57 | 1013.3 |
| 20260509150035 | 72 | 170 | 0.9 | 5.2 | 0.00 | 0.00 | 0.00 | 58 | 1013.5 |
| 20260509145530 | 71 | 216 | 1.7 | 1.7 | 0.00 | 0.00 | 0.00 | 58 | 1013.6 |
| 20260509145026 | 71 | 145 | 0.9 | 7.0 | 0.00 | 0.00 | 0.00 | 58 | 1013.6 |
| 20260509144523 | 71 | 193 | 5.2 | 8.7 | 0.00 | 0.00 | 0.00 | 58 | 1013.8 |
| 20260509144020 | 70 | 160 | 0.9 | 5.2 | 0.00 | 0.00 | 0.00 | 60 | 1013.9 |
| 20260509143517 | 70 | 199 | 1.7 | 2.6 | 0.00 | 0.00 | 0.00 | 62 | 1014.0 |
| 20260509143015 | 69 | 149 | 0.0 | 2.6 | 0.00 | 0.00 | 0.00 | 63 | 1014.0 |
| 20260509142510 | 69 | 175 | 1.7 | 2.6 | 0.00 | 0.00 | 0.00 | 62 | 1014.1 |
| 20260509142006 | 69 | 163 | 0.0 | 2.6 | 0.00 | 0.00 | 0.00 | 65 | 1014.4 |
| 20260509141503 | 68 | 218 | 1.7 | 3.5 | 0.00 | 0.00 | 0.00 | 65 | 1014.1 |
| 20260509140959 | 68 | 147 | 0.9 | 1.7 | 0.00 | 0.00 | 0.00 | 67 | 1014.2 |
| 20260509140455 | 67 | 187 | 0.9 | 3.5 | 0.00 | 0.00 | 0.00 | 69 | 1014.0 |
| 20260509135954 | 66 | 187 | 2.6 | 3.5 | 0.00 | 0.00 | 0.00 | 70 | 1014.3 |
| 20260509135451 | 66 | 137 | 1.7 | 2.6 | 0.00 | 0.00 | 0.00 | 71 | 1014.1 |
| 20260509134948 | 65 | 169 | 0.0 | 0.9 | 0.00 | 0.00 | 0.00 | 73 | 1014.5 |
| 20260509134446 | 64 | 143 | 0.0 | 0.9 | 0.00 | 0.00 | 0.00 | 74 | 1014.4 |
| 20260509133943 | 64 | 127 | 0.9 | 1.7 | 0.00 | 0.00 | 0.00 | 74 | 1014.7 |
| 20260509133439 | 64 | 174 | 0.9 | 5.2 | 0.00 | 0.00 | 0.00 | 73 | 1014.7 |
| 20260509132938 | 64 | 191 | 0.9 | 6.1 | 0.00 | 0.00 | 0.00 | 74 | 1014.8 |
| 20260509132436 | 64 | 161 | 0.9 | 1.7 | 0.00 | 0.00 | 0.00 | 74 | 1014.7 |
| 20260509131932 | 64 | 144 | 0.9 | 1.7 | 0.00 | 0.00 | 0.00 | 74 | 1014.8 |
| 20260509131430 | 65 | 128 | 1.7 | 2.6 | 0.00 | 0.00 | 0.00 | 73 | 1014.7 |
| 20260509130926 | 64 | 149 | 0.0 | 1.7 | 0.00 | 0.00 | 0.00 | 74 | 1014.5 |
| 20260509130421 | 64 | 151 | 0.9 | 2.6 | 0.00 | 0.00 | 0.00 | 74 | 1014.6 |
| 20260509125919 | 64 | 176 | 0.9 | 1.7 | 0.00 | 0.00 | 0.00 | 75 | 1014.5 |
| 20260509125415 | 63 | 117 | 0.9 | 0.9 | 0.00 | 0.00 | 0.00 | 76 | 1014.4 |
| 20260509124911 | 62 | 153 | 0.0 | 0.0 | 0.00 | 0.00 | 0.00 | 77 | 1014.3 |
| 20260509124409 | 62 | 241 | 1.7 | 2.6 | 0.00 | 0.00 | 0.00 | 77 | 1014.5 |
| 20260509123906 | 62 | 137 | 0.9 | 2.6 | 0.00 | 0.00 | 0.00 | 78 | 1014.6 |
| 20260509123403 | 61 | 145 | 0.9 | 0.9 | 0.00 | 0.00 | 0.00 | 78 | 1014.7 |
| 20260509122859 | 61 | 174 | 0.9 | 1.7 | 0.00 | 0.00 | 0.00 | 78 | 1014.6 |
| 20260509122356 | 61 | 141 | 0.9 | 1.7 | 0.00 | 0.00 | 0.00 | 80 | 1014.6 |
| 20260509121852 | 61 | 186 | 0.0 | 0.9 | 0.00 | 0.00 | 0.00 | 81 | 1014.6 |
| 20260509121350 | 59 | 140 | 0.0 | 0.9 | 0.00 | 0.00 | 0.00 | 83 | 1015.0 |
| 20260509120848 | 59 | 168 | 0.0 | 1.7 | 0.00 | 0.00 | 0.00 | 84 | 1014.8 |
| 20260509120345 | 58 | 183 | 1.7 | 2.6 | 0.00 | 0.00 | 0.00 | 84 | 1014.9 |
| 20260509115843 | 58 | 158 | 0.0 | 2.6 | 0.00 | 0.00 | 0.00 | 85 | 1014.7 |
| 20260509115340 | 57 | 175 | 0.0 | 1.7 | 0.00 | 0.00 | 0.00 | 85 | 1014.8 |
| 20260509114838 | 57 | 192 | 1.7 | 1.7 | 0.00 | 0.00 | 0.00 | 87 | 1014.8 |
| 20260509114336 | 56 | 172 | 0.0 | 0.0 | 0.00 | 0.00 | 0.00 | 87 | 1014.6 |
| 20260509113835 | 56 | 183 | 0.0 | 1.7 | 0.00 | 0.00 | 0.00 | 88 | 1014.6 |
| 20260509113332 | 56 | 156 | 0.0 | 0.0 | 0.00 | 0.00 | 0.00 | 88 | 1014.6 |
| 20260509112829 | 55 | 150 | 0.0 | 1.7 | 0.00 | 0.00 | 0.00 | 89 | 1014.6 |
| 20260509112326 | 55 | 154 | 0.0 | 0.0 | 0.00 | 0.00 | 0.00 | 90 | 1014.4 |
| 20260509111823 | 54 | 165 | 0.9 | 0.9 | 0.00 | 0.00 | 0.00 | 90 | 1014.7 |
| 20260509111320 | 54 | 152 | 0.0 | 0.0 | 0.00 | 0.00 | 0.00 | 90 | 1014.7 |
| 20260509110818 | 54 | 155 | 0.0 | 0.0 | 0.00 | 0.00 | 0.00 | 90 | 1014.6 |
| 20260509110313 | 54 | 151 | 0.0 | 0.0 | 0.00 | 0.00 | 0.00 | 90 | 1014.4 |
| 20260509105812 | 54 | 137 | 0.9 | 0.9 | 0.00 | 0.00 | 0.00 | 91 | 1014.6 |
| 20260509105310 | 53 | 145 | 0.0 | 2.6 | 0.00 | 0.00 | 0.00 | 91 | 1014.6 |
| 20260509104806 | 53 | 159 | 0.9 | 1.7 | 0.00 | 0.00 | 0.00 | 91 | 1014.6 |
| 20260509104303 | 53 | 152 | 0.0 | 0.9 | 0.00 | 0.00 | 0.00 | 92 | 1014.6 |
| 20260509103801 | 52 | 155 | 0.0 | 0.0 | 0.00 | 0.00 | 0.00 | 93 | 1014.5 |
| 20260509103258 | 52 | 154 | 0.0 | 0.0 | 0.00 | 0.00 | 0.00 | 93 | 1014.4 |
| 20260509102756 | 51 | 151 | 0.0 | 0.0 | 0.00 | 0.00 | 0.00 | 94 | 1014.5 |
| 20260509102253 | 51 | 148 | 0.0 | 0.0 | 0.00 | 0.00 | 0.00 | 94 | 1014.3 |
| 20260509101749 | 51 | 151 | 0.0 | 0.0 | 0.00 | 0.00 | 0.00 | 93 | 1014.4 |
| 20260509101245 | 51 | 150 | 0.0 | 0.0 | 0.00 | 0.00 | 0.00 | 93 | 1014.3 |
| 20260509100743 | 51 | 136 | 0.0 | 0.0 | 0.00 | 0.00 | 0.00 | 93 | 1014.3 |
| 20260509100240 | 51 | 136 | 0.0 | 0.0 | 0.00 | 0.00 | 0.00 | 93 | 1014.6 |
| 20260509095736 | 51 | 141 | 0.0 | 0.0 | 0.00 | 0.00 | 0.00 | 92 | 1014.4 |
| 20260509095234 | 51 | 160 | 0.9 | 0.9 | 0.00 | 0.00 | 0.00 | 92 | 1014.4 |
| 20260509094731 | 51 | 136 | 0.0 | 0.0 | 0.00 | 0.00 | 0.00 | 91 | 1014.4 |
| 20260509094228 | 51 | 134 | 0.0 | 0.0 | 0.00 | 0.00 | 0.00 | 91 | 1014.4 |
| 20260509093726 | 52 | 127 | 0.0 | 0.0 | 0.00 | 0.00 | 0.00 | 91 | 1014.5 |
| 20260509093223 | 52 | 136 | 0.0 | 0.0 | 0.00 | 0.00 | 0.00 | 90 | 1014.4 |
| 20260509092721 | 52 | 144 | 0.0 | 0.0 | 0.00 | 0.00 | 0.00 | 89 | 1014.6 |
| 20260509092219 | 52 | 136 | 0.0 | 0.0 | 0.00 | 0.00 | 0.00 | 89 | 1014.9 |
| 20260509091717 | 53 | 151 | 0.0 | 0.0 | 0.00 | 0.00 | 0.00 | 88 | 1014.6 |
| 20260509091212 | 53 | 135 | 0.0 | 0.9 | 0.00 | 0.00 | 0.00 | 87 | 1014.7 |
| 20260509090710 | 53 | 150 | 0.0 | 0.0 | 0.00 | 0.00 | 0.00 | 87 | 1014.5 |
| 20260509090207 | 53 | 173 | 0.0 | 0.0 | 0.00 | 0.00 | 0.00 | 87 | 1014.6 |
| 20260509085705 | 53 | 138 | 0.0 | 0.0 | 0.00 | 0.00 | 0.00 | 87 | 1014.6 |
| 20260509085201 | 53 | 136 | 0.0 | 0.0 | 0.00 | 0.00 | 0.00 | 87 | 1014.5 |
| 20260509084658 | 53 | 139 | 0.0 | 0.9 | 0.00 | 0.00 | 0.00 | 87 | 1014.4 |
| 20260509084155 | 53 | 136 | 0.0 | 0.9 | 0.00 | 0.00 | 0.00 | 87 | 1014.4 |
| 20260509083653 | 52 | 141 | 0.0 | 0.0 | 0.00 | 0.00 | 0.00 | 87 | 1014.3 |
| 20260509083149 | 52 | 141 | 0.0 | 0.0 | 0.00 | 0.00 | 0.00 | 86 | 1014.5 |
| 20260509082646 | 52 | 150 | 0.0 | 0.0 | 0.00 | 0.00 | 0.00 | 86 | 1014.4 |
| 20260509082143 | 52 | 127 | 0.0 | 0.0 | 0.00 | 0.00 | 0.00 | 86 | 1014.3 |
| 20260509081640 | 52 | 152 | 0.0 | 0.0 | 0.00 | 0.00 | 0.00 | 86 | 1014.2 |
| 20260509081137 | 52 | 133 | 0.0 | 0.0 | 0.00 | 0.00 | 0.00 | 85 | 1014.2 |
| 20260509080635 | 53 | 134 | 0.0 | 0.0 | 0.00 | 0.00 | 0.00 | 84 | 1014.4 |
| 20260509080133 | 53 | 131 | 0.0 | 0.0 | 0.00 | 0.00 | 0.00 | 83 | 1014.3 |
| 20260509075631 | 53 | 141 | 0.0 | 0.0 | 0.00 | 0.00 | 0.00 | 82 | 1014.5 |
| 20260509075128 | 54 | 134 | 0.0 | 0.0 | 0.00 | 0.00 | 0.00 | 81 | 1014.5 |
| 20260509074625 | 55 | 136 | 0.0 | 0.0 | 0.00 | 0.00 | 0.00 | 80 | 1014.7 |
| 20260509074121 | 55 | 136 | 0.0 | 0.0 | 0.00 | 0.00 | 0.00 | 79 | 1014.6 |
| 20260509073618 | 55 | 150 | 0.0 | 0.0 | 0.00 | 0.00 | 0.00 | 79 | 1014.8 |
| 20260509073114 | 55 | 154 | 0.0 | 0.0 | 0.00 | 0.00 | 0.00 | 79 | 1014.8 |
| 20260509072611 | 56 | 141 | 0.0 | 0.0 | 0.00 | 0.00 | 0.00 | 78 | 1014.6 |
| 20260509072108 | 57 | 149 | 0.0 | 0.0 | 0.00 | 0.00 | 0.00 | 76 | 1014.6 |
| 20260509071604 | 57 | 127 | 0.0 | 0.9 | 0.00 | 0.00 | 0.00 | 75 | 1014.6 |
| 20260509071102 | 57 | 122 | 0.0 | 1.7 | 0.00 | 0.00 | 0.00 | 75 | 1014.7 |
| 20260509070559 | 56 | 131 | 0.9 | 2.6 | 0.00 | 0.00 | 0.00 | 76 | 1014.3 |
| 20260509070055 | 56 | 151 | 0.0 | 0.9 | 0.00 | 0.00 | 0.00 | 76 | 1014.5 |
| 20260509065551 | 55 | 149 | 0.0 | 0.0 | 0.00 | 0.00 | 0.00 | 77 | 1014.7 |
| 20260509065047 | 56 | 196 | 0.9 | 0.9 | 0.00 | 0.00 | 0.00 | 77 | 1014.7 |
| 20260509064545 | 56 | 136 | 0.0 | 1.7 | 0.00 | 0.00 | 0.00 | 77 | 1014.7 |
| 20260509064043 | 56 | 159 | 0.0 | 0.0 | 0.00 | 0.00 | 0.00 | 76 | 1015.0 |
| 20260509063538 | 56 | 171 | 0.0 | 0.9 | 0.00 | 0.00 | 0.00 | 76 | 1014.9 |
| 20260509063036 | 56 | 150 | 0.9 | 1.7 | 0.00 | 0.00 | 0.00 | 76 | 1015.2 |
| 20260509062533 | 56 | 182 | 0.0 | 1.7 | 0.00 | 0.00 | 0.00 | 76 | 1015.3 |
| 20260509062030 | 56 | 195 | 0.9 | 1.7 | 0.00 | 0.00 | 0.00 | 76 | 1015.5 |
| 20260509061527 | 56 | 152 | 0.0 | 0.9 | 0.00 | 0.00 | 0.00 | 75 | 1015.4 |
| 20260509061024 | 56 | 173 | 0.9 | 2.6 | 0.00 | 0.00 | 0.00 | 74 | 1015.6 |
| 20260509060522 | 55 | 164 | 0.9 | 0.9 | 0.00 | 0.00 | 0.00 | 76 | 1015.7 |
| 20260509060017 | 56 | 153 | 0.0 | 0.9 | 0.00 | 0.00 | 0.00 | 74 | 1015.7 |
| 20260509055513 | 55 | 161 | 0.0 | 0.0 | 0.00 | 0.00 | 0.00 | 74 | 1015.6 |
| 20260509055009 | 55 | 141 | 0.9 | 1.7 | 0.00 | 0.00 | 0.00 | 73 | 1015.6 |
| 20260509054506 | 56 | 166 | 0.0 | 0.9 | 0.00 | 0.00 | 0.00 | 72 | 1015.6 |
| 20260509054004 | 55 | 135 | 0.0 | 0.9 | 0.00 | 0.00 | 0.00 | 73 | 1015.6 |
| 20260509053502 | 55 | 141 | 0.0 | 0.9 | 0.00 | 0.00 | 0.00 | 72 | 1015.6 |
| 20260509052959 | 55 | 151 | 0.0 | 0.0 | 0.00 | 0.00 | 0.00 | 72 | 1015.8 |
| 20260509052456 | 55 | 154 | 0.0 | 0.9 | 0.00 | 0.00 | 0.00 | 71 | 1015.5 |
| 20260509051954 | 55 | 144 | 0.0 | 0.0 | 0.00 | 0.00 | 0.00 | 71 | 1015.4 |
| 20260509051452 | 55 | 154 | 0.0 | 0.0 | 0.00 | 0.00 | 0.00 | 71 | 1015.4 |
| 20260509050949 | 55 | 154 | 0.0 | 0.0 | 0.00 | 0.00 | 0.00 | 71 | 1015.3 |
| 20260509050445 | 54 | 151 | 0.0 | 0.9 | 0.00 | 0.00 | 0.00 | 71 | 1015.6 |
| 20260509045942 | 54 | 152 | 0.0 | 0.0 | 0.00 | 0.00 | 0.00 | 72 | 1015.3 |
| 20260509045439 | 53 | 153 | 0.0 | 0.0 | 0.00 | 0.00 | 0.00 | 72 | 1015.4 |
| 20260509044936 | 54 | 149 | 0.0 | 0.0 | 0.00 | 0.00 | 0.00 | 72 | 1015.3 |
| 20260509044434 | 54 | 150 | 0.0 | 0.0 | 0.00 | 0.00 | 0.00 | 72 | 1015.2 |
| 20260509043931 | 53 | 136 | 0.0 | 0.0 | 0.00 | 0.00 | 0.00 | 73 | 1015.4 |
| 20260509043426 | 53 | 149 | 0.0 | 0.0 | 0.00 | 0.00 | 0.00 | 72 | 1015.2 |
| 20260509042922 | 53 | 141 | 0.0 | 0.0 | 0.00 | 0.00 | 0.00 | 72 | 1015.4 |
| 20260509042420 | 53 | 145 | 0.0 | 0.0 | 0.00 | 0.00 | 0.00 | 72 | 1015.3 |
| 20260509041915 | 53 | 141 | 0.0 | 0.0 | 0.00 | 0.00 | 0.00 | 71 | 1015.4 |
| 20260509041413 | 53 | 151 | 0.0 | 0.0 | 0.00 | 0.00 | 0.00 | 72 | 1015.3 |
| 20260509040911 | 53 | 136 | 0.0 | 0.0 | 0.00 | 0.00 | 0.00 | 71 | 1015.5 |
| 20260509040408 | 54 | 136 | 0.0 | 0.0 | 0.00 | 0.00 | 0.00 | 70 | 1015.5 |
| 20260509035905 | 54 | 136 | 0.0 | 0.0 | 0.00 | 0.00 | 0.00 | 70 | 1015.4 |
| 20260509035402 | 54 | 141 | 0.0 | 0.0 | 0.00 | 0.00 | 0.00 | 69 | 1015.5 |
| 20260509034858 | 54 | 141 | 0.0 | 0.0 | 0.00 | 0.00 | 0.00 | 68 | 1015.5 |
| 20260509034356 | 54 | 136 | 0.0 | 0.0 | 0.00 | 0.00 | 0.00 | 69 | 1015.5 |
| 20260509033853 | 55 | 136 | 0.0 | 0.0 | 0.00 | 0.00 | 0.00 | 67 | 1015.7 |
| 20260509033350 | 55 | 145 | 0.0 | 0.0 | 0.00 | 0.00 | 0.00 | 66 | 1015.7 |
| 20260509032846 | 55 | 141 | 0.0 | 0.0 | 0.00 | 0.00 | 0.00 | 65 | 1015.8 |
| 20260509032343 | 56 | 141 | 0.0 | 0.0 | 0.00 | 0.00 | 0.00 | 64 | 1015.6 |
| 20260509031842 | 56 | 136 | 0.0 | 0.0 | 0.00 | 0.00 | 0.00 | 63 | 1015.8 |
| 20260509031333 | 57 | 149 | 0.0 | 0.0 | 0.00 | 0.00 | 0.00 | 61 | 1015.6 |
| 20260509030831 | 57 | 141 | 0.0 | 0.0 | 0.00 | 0.00 | 0.00 | 60 | 1015.5 |
| 20260509030328 | 57 | 163 | 0.0 | 0.0 | 0.00 | 0.00 | 0.00 | 61 | 1015.5 |
| 20260509025825 | 57 | 141 | 0.0 | 0.0 | 0.00 | 0.00 | 0.00 | 59 | 1015.5 |
| 20260509025320 | 57 | 156 | 0.0 | 0.0 | 0.00 | 0.00 | 0.00 | 59 | 1015.7 |
| 20260509024816 | 57 | 145 | 0.0 | 0.0 | 0.00 | 0.00 | 0.00 | 58 | 1015.6 |
| 20260509024312 | 57 | 117 | 0.0 | 0.0 | 0.00 | 0.00 | 0.00 | 57 | 1015.8 |
| 20260509023810 | 58 | 132 | 0.0 | 0.0 | 0.00 | 0.00 | 0.00 | 55 | 1015.7 |
| 20260509023307 | 57 | 136 | 0.0 | 0.9 | 0.00 | 0.00 | 0.00 | 56 | 1015.7 |
| 20260509022803 | 57 | 136 | 0.0 | 0.0 | 0.00 | 0.00 | 0.00 | 55 | 1015.4 |
| 20260509022301 | 57 | 149 | 0.0 | 0.9 | 0.00 | 0.00 | 0.00 | 54 | 1015.8 |
| 20260509021757 | 57 | 155 | 0.0 | 0.9 | 0.00 | 0.00 | 0.00 | 55 | 1015.7 |
| 20260509021255 | 57 | 145 | 0.0 | 0.0 | 0.00 | 0.00 | 0.00 | 54 | 1015.8 |
| 20260509020752 | 57 | 151 | 0.0 | 0.0 | 0.00 | 0.00 | 0.00 | 54 | 1016.0 |
| 20260509020250 | 57 | 152 | 0.0 | 0.0 | 0.00 | 0.00 | 0.00 | 52 | 1015.6 |
| 20260509015747 | 57 | 151 | 0.0 | 0.0 | 0.00 | 0.00 | 0.00 | 52 | 1015.5 |
| 20260509015245 | 58 | 151 | 0.0 | 0.0 | 0.00 | 0.00 | 0.00 | 51 | 1015.3 |
| 20260509014741 | 58 | 141 | 0.0 | 0.0 | 0.00 | 0.00 | 0.00 | 51 | 1015.5 |
| 20260509014239 | 59 | 149 | 0.0 | 0.0 | 0.00 | 0.00 | 0.00 | 51 | 1015.4 |
| 20260509013735 | 59 | 152 | 0.0 | 0.0 | 0.00 | 0.00 | 0.00 | 50 | 1015.5 |
| 20260509013231 | 60 | 153 | 0.0 | 0.0 | 0.00 | 0.00 | 0.00 | 48 | 1015.3 |
| 20260509012728 | 60 | 153 | 0.0 | 0.0 | 0.00 | 0.00 | 0.00 | 48 | 1015.4 |
| 20260509012224 | 60 | 153 | 0.0 | 0.0 | 0.00 | 0.00 | 0.00 | 48 | 1015.2 |
| 20260509011722 | 60 | 151 | 0.0 | 0.0 | 0.00 | 0.00 | 0.00 | 49 | 1015.1 |
| 20260509011220 | 61 | 150 | 0.0 | 0.0 | 0.00 | 0.00 | 0.00 | 49 | 1015.1 |
| 20260509010717 | 60 | 144 | 0.9 | 0.9 | 0.00 | 0.00 | 0.00 | 49 | 1015.2 |
| 20260509010213 | 61 | 150 | 0.0 | 0.0 | 0.00 | 0.00 | 0.00 | 49 | 1015.1 |
| 20260509005711 | 61 | 150 | 0.0 | 0.0 | 0.00 | 0.00 | 0.00 | 49 | 1015.3 |
| 20260509005208 | 61 | 151 | 0.0 | 0.0 | 0.00 | 0.00 | 0.00 | 49 | 1015.2 |
| 20260509004702 | 62 | 150 | 0.0 | 0.0 | 0.00 | 0.00 | 0.00 | 48 | 1015.2 |
| 20260509004200 | 63 | 153 | 0.0 | 0.0 | 0.00 | 0.00 | 0.00 | 47 | 1015.0 |
| 20260509003658 | 64 | 150 | 0.0 | 0.0 | 0.00 | 0.00 | 0.00 | 44 | 1015.2 |
| 20260509003156 | 64 | 150 | 0.0 | 0.0 | 0.00 | 0.00 | 0.00 | 44 | 1015.0 |
| 20260509002653 | 64 | 150 | 0.0 | 0.9 | 0.00 | 0.00 | 0.00 | 44 | 1015.0 |
| 20260509002150 | 65 | 151 | 0.0 | 0.0 | 0.00 | 0.00 | 0.00 | 44 | 1014.9 |
| 20260509001648 | 65 | 242 | 0.0 | 0.9 | 0.00 | 0.00 | 0.00 | 42 | 1015.0 |
| 20260509001143 | 68 | 132 | 0.0 | 0.9 | 0.00 | 0.00 | 0.00 | 37 | 1014.8 |
| 20260509000642 | 68 | 132 | 0.0 | 0.9 | 0.00 | 0.00 | 0.00 | 37 | 1014.9 |
| 20260509000138 | 68 | 132 | 0.0 | 0.9 | 0.00 | 0.00 | 0.00 | 37 | 1014.8 |
| 20260508235636 | 68 | 132 | 0.0 | 0.9 | 0.00 | 0.00 | 0.00 | 37 | 1014.7 |
| 20260508235132 | 68 | 132 | 0.0 | 0.9 | 0.00 | 0.00 | 0.00 | 37 | 1014.6 |
| 20260508234629 | 68 | 132 | 0.0 | 0.9 | 0.00 | 0.00 | 0.00 | 37 | 1014.4 |
| 20260508234126 | 68 | 132 | 0.0 | 0.9 | 0.00 | 0.00 | 0.00 | 37 | 1014.5 |
| 20260508233625 | 68 | 132 | 0.0 | 0.9 | 0.00 | 0.00 | 0.00 | 37 | 1014.7 |
| 20260508233122 | 68 | 153 | 0.0 | 0.9 | 0.00 | 0.00 | 0.00 | 37 | 1014.6 |
| 20260508232619 | 68 | 227 | 0.9 | 2.6 | 0.00 | 0.00 | 0.00 | 38 | 1014.3 |
| 20260508232116 | 68 | 164 | 0.9 | 0.9 | 0.00 | 0.00 | 0.00 | 35 | 1014.6 |
| 20260508231614 | 68 | 164 | 0.9 | 0.9 | 0.00 | 0.00 | 0.00 | 35 | 1014.5 |
| 20260508231110 | 68 | 167 | 1.7 | 1.7 | 0.00 | 0.00 | 0.00 | 36 | 1014.5 |
| 20260508230607 | 69 | 187 | 0.9 | 0.9 | 0.00 | 0.00 | 0.00 | 37 | 1014.3 |
| 20260508230103 | 69 | 167 | 0.9 | 0.9 | 0.00 | 0.00 | 0.00 | 35 | 1014.4 |
| 20260508225601 | 69 | 150 | 2.6 | 2.6 | 0.00 | 0.00 | 0.00 | 34 | 1014.3 |
| 20260508225057 | 69 | 139 | 0.0 | 0.9 | 0.00 | 0.00 | 0.00 | 36 | 1014.5 |
| 20260508224556 | 69 | 162 | 0.0 | 1.7 | 0.00 | 0.00 | 0.00 | 38 | 1014.4 |
| 20260508224052 | 69 | 140 | 0.0 | 0.9 | 0.00 | 0.00 | 0.00 | 36 | 1014.4 |
| 20260508223550 | 69 | 168 | 0.9 | 0.9 | 0.00 | 0.00 | 0.00 | 37 | 1014.5 |
| 20260508223047 | 69 | 168 | 0.9 | 0.9 | 0.00 | 0.00 | 0.00 | 35 | 1014.4 |
| 20260508222545 | 69 | 168 | 0.9 | 0.9 | 0.00 | 0.00 | 0.00 | 36 | 1014.4 |
| 20260508222041 | 70 | 176 | 0.9 | 1.7 | 0.00 | 0.00 | 0.00 | 36 | 1014.7 |
| 20260508221538 | 70 | 167 | 0.0 | 1.7 | 0.00 | 0.00 | 0.00 | 36 | 1014.6 |
| 20260508221033 | 70 | 173 | 0.0 | 3.5 | 0.00 | 0.00 | 0.00 | 34 | 1014.7 |
| 20260508220531 | 70 | 155 | 0.0 | 0.9 | 0.00 | 0.00 | 0.00 | 33 | 1014.7 |
| 20260508220027 | 70 | 147 | 1.7 | 5.2 | 0.00 | 0.00 | 0.00 | 33 | 1014.7 |
| 20260508215524 | 71 | 144 | 1.7 | 2.6 | 0.00 | 0.00 | 0.00 | 33 | 1014.7 |
| 20260508215020 | 71 | 186 | 0.0 | 0.9 | 0.00 | 0.00 | 0.00 | 34 | 1014.6 |
| 20260508214518 | 72 | 153 | 1.7 | 7.0 | 0.00 | 0.00 | 0.00 | 32 | 1014.7 |
| 20260508214014 | 73 | 164 | 0.9 | 1.7 | 0.00 | 0.00 | 0.00 | 31 | 1014.5 |
| 20260508213512 | 74 | 144 | 0.0 | 0.9 | 0.00 | 0.00 | 0.00 | 30 | 1014.8 |
| 20260508213007 | 74 | 204 | 0.9 | 1.7 | 0.00 | 0.00 | 0.00 | 29 | 1014.8 |
| 20260508212504 | 74 | 162 | 0.9 | 1.7 | 0.00 | 0.00 | 0.00 | 30 | 1014.7 |
| 20260508212000 | 73 | 129 | 1.7 | 2.6 | 0.00 | 0.00 | 0.00 | 31 | 1014.5 |
| 20260508211455 | 74 | 163 | 0.0 | 1.7 | 0.00 | 0.00 | 0.00 | 31 | 1014.5 |
| 20260508210953 | 74 | 153 | 0.9 | 5.2 | 0.00 | 0.00 | 0.00 | 31 | 1014.5 |
| 20260508210449 | 74 | 176 | 0.9 | 1.7 | 0.00 | 0.00 | 0.00 | 30 | 1014.7 |
| 20260508205945 | 73 | 157 | 0.9 | 2.6 | 0.00 | 0.00 | 0.00 | 32 | 1014.6 |
| 20260508205443 | 73 | 188 | 0.9 | 1.7 | 0.00 | 0.00 | 0.00 | 31 | 1014.6 |
| 20260508204939 | 73 | 177 | 0.0 | 1.7 | 0.00 | 0.00 | 0.00 | 31 | 1014.8 |
| 20260508204437 | 73 | 137 | 0.9 | 2.6 | 0.00 | 0.00 | 0.00 | 31 | 1014.9 |
| 20260508203931 | 74 | 182 | 1.7 | 3.5 | 0.00 | 0.00 | 0.00 | 31 | 1014.9 |
| 20260508203428 | 75 | 127 | 0.0 | 0.9 | 0.00 | 0.00 | 0.00 | 30 | 1014.8 |
| 20260508202924 | 74 | 187 | 0.9 | 5.2 | 0.00 | 0.00 | 0.00 | 31 | 1015.0 |
| 20260508202422 | 75 | 123 | 0.9 | 2.6 | 0.00 | 0.00 | 0.00 | 31 | 1015.0 |
| 20260508201918 | 72 | 165 | 0.9 | 1.7 | 0.00 | 0.00 | 0.00 | 32 | 1015.1 |
| 20260508201415 | 72 | 150 | 2.6 | 3.5 | 0.00 | 0.00 | 0.00 | 31 | 1015.1 |
| 20260508200912 | 72 | 171 | 0.9 | 0.9 | 0.00 | 0.00 | 0.00 | 32 | 1015.0 |
| 20260508200409 | 73 | 190 | 1.7 | 7.8 | 0.00 | 0.00 | 0.00 | 31 | 1015.1 |
| 20260508195904 | 73 | 143 | 0.9 | 1.7 | 0.00 | 0.00 | 0.00 | 31 | 1015.2 |
| 20260508195401 | 73 | 173 | 1.7 | 2.6 | 0.00 | 0.00 | 0.00 | 30 | 1015.2 |
| 20260508194857 | 72 | 170 | 0.9 | 1.7 | 0.00 | 0.00 | 0.00 | 31 | 1015.3 |
| 20260508194354 | 72 | 170 | 1.7 | 2.6 | 0.00 | 0.00 | 0.00 | 30 | 1015.5 |
| 20260508193852 | 71 | 255 | 1.7 | 3.5 | 0.00 | 0.00 | 0.00 | 33 | 1015.4 |
| 20260508193348 | 72 | 175 | 1.7 | 1.7 | 0.00 | 0.00 | 0.00 | 32 | 1015.5 |
| 20260508192844 | 73 | 163 | 1.7 | 1.7 | 0.00 | 0.00 | 0.00 | 31 | 1015.4 |
| 20260508192342 | 72 | 152 | 0.9 | 3.5 | 0.00 | 0.00 | 0.00 | 30 | 1015.7 |
| 20260508191839 | 71 | 153 | 0.0 | 1.7 | 0.00 | 0.00 | 0.00 | 35 | 1015.8 |
| 20260508191336 | 72 | 79 | 3.5 | 5.2 | 0.00 | 0.00 | 0.00 | 34 | 1015.9 |
| 20260508190833 | 70 | 91 | 0.9 | 1.7 | 0.00 | 0.00 | 0.00 | 34 | 1015.9 |
| 20260508190329 | 71 | 192 | 1.7 | 1.7 | 0.00 | 0.00 | 0.00 | 33 | 1016.1 |
| 20260508185826 | 71 | 198 | 0.9 | 1.7 | 0.00 | 0.00 | 0.00 | 33 | 1016.1 |
| 20260508185323 | 71 | 191 | 0.0 | 1.7 | 0.00 | 0.00 | 0.00 | 31 | 1016.1 |
| 20260508184820 | 70 | 207 | 1.7 | 2.6 | 0.00 | 0.00 | 0.00 | 30 | 1016.3 |
| 20260508184318 | 71 | 141 | 1.7 | 2.6 | 0.00 | 0.00 | 0.00 | 30 | 1016.4 |
| 20260508183815 | 72 | 150 | 0.9 | 2.6 | 0.00 | 0.00 | 0.00 | 31 | 1016.3 |
| 20260508183311 | 71 | 156 | 1.7 | 3.5 | 0.00 | 0.00 | 0.00 | 33 | 1016.3 |
| 20260508182806 | 71 | 133 | 0.9 | 1.7 | 0.00 | 0.00 | 0.00 | 31 | 1016.4 |
| 20260508182306 | 70 | 206 | 1.7 | 1.7 | 0.00 | 0.00 | 0.00 | 33 | 1016.3 |
| 20260508181754 | 69 | 175 | 0.0 | 1.7 | 0.00 | 0.00 | 0.00 | 32 | 1016.6 |
| 20260508181250 | 70 | 170 | 1.7 | 2.6 | 0.00 | 0.00 | 0.00 | 32 | 1016.8 |
| 20260508180748 | 71 | 178 | 1.7 | 2.6 | 0.00 | 0.00 | 0.00 | 30 | 1016.7 |
| 20260508180244 | 71 | 153 | 2.6 | 3.5 | 0.00 | 0.00 | 0.00 | 32 | 1016.5 |
| 20260508175741 | 71 | 163 | 0.9 | 1.7 | 0.00 | 0.00 | 0.00 | 31 | 1016.9 |
| 20260508175237 | 70 | 186 | 0.0 | 1.7 | 0.00 | 0.00 | 0.00 | 39 | 1016.8 |
| 20260508174735 | 71 | 183 | 0.9 | 3.5 | 0.00 | 0.00 | 0.00 | 31 | 1016.9 |
| 20260508174233 | 70 | 137 | 0.9 | 2.6 | 0.00 | 0.00 | 0.00 | 32 | 1016.9 |
| 20260508173729 | 70 | 197 | 0.9 | 3.5 | 0.00 | 0.00 | 0.00 | 30 | 1016.8 |
| 20260508173225 | 69 | 195 | 0.9 | 1.7 | 0.00 | 0.00 | 0.00 | 30 | 1017.1 |
| 20260508172722 | 70 | 181 | 1.7 | 2.6 | 0.00 | 0.00 | 0.00 | 31 | 1017.2 |
| 20260508172219 | 70 | 113 | 1.7 | 3.5 | 0.00 | 0.00 | 0.00 | 32 | 1017.1 |
| 20260508171715 | 70 | 150 | 1.7 | 2.6 | 0.00 | 0.00 | 0.00 | 30 | 1017.4 |
| 20260508171211 | 69 | 156 | 0.9 | 1.7 | 0.00 | 0.00 | 0.00 | 33 | 1017.3 |
| 20260508170709 | 68 | 158 | 2.6 | 3.5 | 0.00 | 0.00 | 0.00 | 30 | 1017.5 |
| 20260508170206 | 68 | 134 | 0.9 | 7.0 | 0.00 | 0.00 | 0.00 | 34 | 1017.5 |
| 20260508165703 | 69 | 112 | 1.7 | 2.6 | 0.00 | 0.00 | 0.00 | 34 | 1017.9 |
| 20260508165200 | 69 | 199 | 2.6 | 5.2 | 0.00 | 0.00 | 0.00 | 30 | 1017.7 |
| 20260508164656 | 68 | 149 | 2.6 | 2.6 | 0.00 | 0.00 | 0.00 | 33 | 1017.6 |
| 20260508164153 | 68 | 104 | 0.0 | 0.9 | 0.00 | 0.00 | 0.00 | 35 | 1017.9 |
| 20260508163651 | 69 | 139 | 0.9 | 1.7 | 0.00 | 0.00 | 0.00 | 30 | 1017.9 |
| 20260508163148 | 68 | 233 | 0.9 | 2.6 | 0.00 | 0.00 | 0.00 | 35 | 1017.9 |
| 20260508162643 | 68 | 167 | 0.0 | 0.9 | 0.00 | 0.00 | 0.00 | 33 | 1018.1 |
| 20260508162141 | 68 | 174 | 0.0 | 1.7 | 0.00 | 0.00 | 0.00 | 34 | 1018.1 |
| 20260508161638 | 68 | 161 | 0.0 | 1.7 | 0.00 | 0.00 | 0.00 | 36 | 1018.2 |
| 20260508161135 | 68 | 156 | 0.9 | 1.7 | 0.00 | 0.00 | 0.00 | 34 | 1018.5 |